SCP
0 0 0 0 0 0 0 0 0 0 0 0 0 0 0 0 0 0 0 0 0 0 0 0 0 0 1 1 2 2 2 2 1 1 1 2 1 1
0 0 0 0 0 0 0 0 0 0 0 0 0 0 0 0 0 0 0 0 0 0 0 0 0 0 1 1 1 1 2 1 1 1 1 1 1 1
0 0 0 0 0 0 0 0 0 0 0 0 0 0 0 0 0 0 0 0 0 0 0 0 0 0 0 0 0 1 1 1 1 1 1 1 0 0
0 0 0 0 0 0 0 0 0 0 0 0 0 0 0 0 0 0 0 0 0 0 0 0 0 0 0 0 0 0 1 1 1 1 1 0 0 0
0 0 0 0 0 0 0 0 0 0 0 0 0 0 0 0 0 0 0 0 0 0 0 0 0 0 0 0 0 0 0 0 0 0 0 0 0 0
0 0 0 0 0 0 0 0 0 0 0 0 0 0 0 0 0 0 0 0 0 0 0 0 0 0 0 0 0 0 0 0 0 0 0 0 0 0
0 0 0 0 0 0 0 0 0 0 0 0 0 0 0 0 0 0 0 0 0 0 0 0 0 0 0 0 0 0 0 0 0 0 0 0 0 0
0 0 0 0 0 0 0 0 0 0 0 0 0 0 0 0 0 0 0 0 0 0 0 0 0 0 0 0 0 0 0 0 0 0 0 0 0 0
0 0 0 0 0 0 0 0 0 0 0 0 0 0 0 0 0 0 0 0 0 0 0 0 0 0 0 0 0 0 0 0 0 0 0 0 0 0
0 0 0 0 0 0 0 0 0 0 0 0 0 0 0 0 0 0 0 0 0 0 0 0 0 0 0 0 0 0 0 0 0 0 0 0 0 0
0 0 0 0 0 0 0 0 0 0 0 0 0 0 0 0 0 0 0 0 0 0 0 0 0 0 0 0 0 0 0 0 0 0 0 0 0 0
0 0 0 0 0 0 0 0 0 0 0 0 0 0 0 0 0 0 0 0 0 0 0 0 0 0 0 0 0 0 0 0 0 0 0 0 0 0
0 0 0 -0 -0 -0 -0 0 0 0 0 0 0 0 0 0 0 0 0 0 0 0 0 0 0 0 0 0 0 0 0 0 0 0 0 0 0 0
0 0 0 0 -0 -0 0 0 0 0 0 0 0 0 0 0 0 0 0 0 0 0 0 0 0 0 0 0 0 0 0 0 0 0 0 0 0 0
0 0 0 0 0 0 0 0 0 0 0 0 0 0 0 0 0 0 0 0 0 0 0 0 0 0 0 0 0 0 0 0 0 0 0 0 0 0
0 0 0 0 0 0 0 0 0 0 0 0 0 0 0 0 0 0 0 0 0 0 0 0 0 0 0 0 0 0 0 0 0 0 0 0 0 0
0 0 0 0 0 0 0 0 0 0 0 0 0 0 0 0 0 0 0 0 0 0 0 0 0 0 0 0 0 0 0 0 0 0 0 0 0 0
0 0 0 0 0 0 0 0 0 0 0 0 0 0 0 0 0 0 0 0 0 0 0 0 0 0 0 0 0 0 0 0 0 0 0 0 0 0
0 0 0 0 0 0 0 0 0 0 0 0 0 0 0 0 0 0 0 0 0 0 0 0 0 0 0 0 0 0 0 0 0 0 0 0 0 0
0 0 0 0 0 0 0 0 0 0 0 0 0 0 0 0 0 0 0 0 0 0 0 0 0 0 0 0 0 0 0 0 0 0 0 0 0 0
0 0 0 0 0 0 0 0 0 0 0 0 0 0 0 0 0 0 0 0 0 0 0 0 0 0 0 0 0 0 0 0 0 0 0 0 0 0
0 0 0 0 0 0 0 0 0 0 0 0 0 0 0 0 0 0 0 0 0 0 0 0 0 0 0 0 0 0 0 0 0 0 0 0 0 0
0 0 0 0 0 0 0 0 0 0 0 0 0 0 0 0 0 0 0 0 0 0 0 0 0 0 0 0 0 0 0 0 0 0 0 0 0 0
Wind_Speed
12 11 10 10 10 11 12 11 11 12 12 9 6 5 3 3 7 6 6 11 13 13 13 13 13 13 13 15 16 20 23 22 21 22 22 21 20 19
11 11 11 10 11 11 12 12 12 13 12 7 6 5 6 5 4 5 6 10 14 16 16 15 14 14 14 15 15 18 21 22 24 25 24 23 23 22
11 12 13 14 11 10 10 11 12 12 13 11 9 8 7 6 3 2 3 4 6 14 16 16 16 16 15 15 15 17 21 23 25 25 26 27 27 25
12 13 13 12 14 11 9 10 9 10 10 11 8 7 7 5 4 3 3 4 4 10 14 14 15 16 15 15 16 19 22 24 25 26 27 28 27 26
10 12 13 14 13 11 10 8 7 7 6 6 7 5 4 3 3 2 3 3 4 6 9 11 12 14 15 18 20 22 24 25 26 25 26 26 26 25
9 11 12 13 13 13 9 7 4 4 3 4 5 4 3 3 2 3 3 3 4 4 5 6 11 14 19 23 25 26 26 27 27 26 24 22 21 21
9 11 12 17 20 17 12 11 8 4 3 2 3 3 2 2 2 3 4 3 3 4 6 6 8 9 11 20 25 29 29 28 27 26 24 21 19 19
9 10 12 14 19 23 25 25 23 14 8 5 3 2 1 2 2 2 4 5 5 5 7 7 7 9 9 10 22 27 28 27 27 26 25 23 21 19
9 9 11 14 17 14 19 23 23 26 23 11 8 7 5 5 4 3 4 6 4 6 9 8 7 10 8 14 24 26 26 25 25 25 24 23 22 20
11 11 12 13 17 17 15 15 15 16 19 13 12 12 12 9 5 4 3 3 5 4 6 9 7 9 10 12 21 23 24 24 24 24 24 23 21 20
12 14 14 12 24 25 16 15 15 15 19 24 24 22 25 27 19 6 2 6 8 4 3 7 8 9 9 9 16 24 24 24 24 24 24 23 22 19
10 12 20 22 26 24 15 14 15 14 15 16 18 21 19 22 27 15 8 1 6 5 2 6 8 8 9 6 7 10 15 22 23 22 22 21 19 10
8 8 11 25 26 26 21 15 19 15 12 13 13 14 14 14 15 15 13 8 4 4 2 5 6 5 8 7 6 7 8 10 10 12 14 15 14 11
7 6 10 23 24 25 19 23 25 18 10 11 12 13 14 13 12 13 14 14 12 10 7 5 6 6 9 8 7 5 7 7 7 7 6 12 13 13
8 16 19 21 19 16 23 25 19 12 11 12 12 12 11 12 12 11 12 12 16 17 14 11 8 8 7 9 9 7 6 5 5 6 5 5 4 4
9 14 19 20 17 17 17 15 12 12 11 11 10 9 9 10 12 12 12 11 12 15 17 18 13 11 11 10 10 9 7 6 5 5 6 5 4 4
8 7 7 9 10 10 10 10 10 10 11 10 10 10 10 11 11 11 11 11 12 12 12 12 14 15 16 12 10 10 9 8 6 5 4 4 3 3
10 6 8 8 9 9 9 9 9 9 9 9 9 9 9 9 9 9 10 10 11 11 10 8 6 7 10 14 15 10 8 7 5 5 4 3 3 3
6 4 4 5 5 6 6 5 5 6 6 6 7 7 7 8 8 9 9 9 9 10 10 10 9 6 8 8 8 11 7 5 4 4 3 3 2 1
3 3 3 4 3 4 4 4 4 4 4 4 4 5 6 6 7 7 8 8 8 9 9 9 9 8 6 5 5 4 9 6 4 3 3 2 2 3
4 3 3 3 3 3 3 3 4 3 3 3 4 4 4 4 5 6 6 11 9 7 8 6 6 8 4 4 6 4 4 6 5 3 2 2 2 2
3 3 3 3 3 3 3 3 3 3 3 3 3 3 3 3 4 5 5 4 4 4 4 3 4 5 5 6 5 3 2 3 3 2 3 3 1 1
3 3 3 3 3 2 2 3 3 3 2 2 2 2 2 2 2 2 3 3 3 3 3 3 3 3 3 3 3 2 1 1 1 2 2 4 5 8
Wind_Direction
300 296 295 290 279 267 255 245 249 262 273 276 276 277 285 223 186 177 185 203 215 223 223 219 218 218 215 209 201 193 189 183 176 172 171 167 160 148
303 304 302 296 286 270 252 240 236 244 257 271 276 302 331 327 212 175 189 204 212 218 223 222 218 216 214 211 203 194 186 178 173 171 169 159 146 139
310 312 308 304 295 282 259 240 233 232 245 258 268 281 293 307 293 222 199 201 206 211 216 220 219 216 212 208 200 188 178 171 167 165 158 149 143 138
319 318 317 314 309 298 280 252 237 230 236 247 255 260 261 265 262 242 221 203 196 203 207 213 216 215 207 196 184 172 164 159 155 151 147 143 139 138
319 324 325 325 321 312 297 278 255 244 237 247 253 250 252 248 251 248 228 203 188 183 188 195 198 193 181 168 159 152 146 142 138 137 137 137 137 137
327 333 333 338 336 330 326 321 298 274 260 256 256 251 244 245 216 210 215 192 177 160 148 143 147 150 151 147 141 135 130 128 128 128 127 127 128 129
345 349 348 360 3 3 8 8 4 353 324 287 264 249 235 224 219 193 201 179 162 152 139 133 125 122 127 128 126 125 124 123 123 123 121 118 117 117
8 5 359 6 14 11 19 24 25 24 17 4 338 315 314 317 291 224 195 180 176 165 142 123 120 117 115 115 122 122 123 125 126 125 124 120 116 115
19 20 15 11 24 14 15 22 21 24 30 27 19 13 3 348 324 276 224 186 158 155 137 120 118 116 117 124 126 126 125 125 125 124 121 119 118 118
24 26 24 16 27 26 17 20 20 19 22 26 27 21 14 8 338 295 272 152 111 105 125 118 116 112 113 118 124 126 127 127 127 126 125 124 123 120
20 22 25 23 30 31 22 20 21 17 17 26 29 31 28 27 23 11 356 178 142 101 62 106 117 100 85 94 113 116 118 120 123 125 126 126 125 120
16 12 20 29 29 35 27 20 25 15 12 14 20 22 24 25 27 24 2 275 136 116 48 112 123 111 92 48 70 101 108 112 115 120 123 124 123 116
17 9 14 26 28 34 34 29 30 26 16 18 20 20 20 22 23 22 18 15 53 77 35 102 112 97 109 107 59 61 94 103 102 106 108 113 123 127
8 2 17 28 28 29 33 32 31 28 22 23 26 23 19 15 13 18 24 32 37 45 35 64 104 118 123 114 108 88 83 92 101 99 91 94 93 99
8 18 24 29 27 25 28 30 27 24 22 26 27 24 20 14 13 16 20 30 41 40 36 47 81 97 98 117 122 126 105 89 94 103 101 96 94 94
15 16 23 24 28 26 27 25 21 25 26 23 21 19 20 22 23 21 24 23 41 42 37 41 52 81 98 101 111 117 115 120 112 98 99 96 93 90
28 15 16 17 20 20 21 23 22 21 24 21 19 19 23 29 31 29 31 34 42 46 44 44 54 66 69 79 97 100 102 99 96 92 101 106 103 114
31 19 22 20 18 16 17 18 20 23 21 23 22 19 21 26 32 34 40 42 44 40 35 26 39 68 75 57 47 89 93 96 90 78 76 94 86 63
25 9 12 11 10 9 8 7 13 16 14 19 21 17 19 26 35 39 40 45 49 46 38 30 26 52 87 91 51 41 72 79 80 77 71 78 86 23
4 3 1 0 3 3 1 359 357 8 8 12 17 16 20 28 36 40 43 49 52 53 49 41 39 42 61 84 97 63 51 62 63 66 56 45 360 311
345 348 349 353 354 355 354 355 352 355 5 12 23 21 20 29 35 34 41 57 59 56 58 48 30 37 41 66 85 77 45 60 76 83 61 34 3 346
330 332 331 335 341 347 344 346 345 347 2 16 17 23 24 29 37 43 43 49 53 51 56 52 28 35 47 71 82 78 57 20 1 325 225 214 173 59
304 305 308 314 319 329 340 341 340 335 346 354 358 15 29 31 30 38 42 52 60 52 44 42 42 54 64 77 86 82 60 27 34 26 325 279 260 264